Silver Bay, MN

10:02 PM CDT on August 21, 2017 (GMT -0500)
Silver Bay Municipal

Weather History for KBFW - October, 2013

Change the Weather History Date:

Saturday, October 5, 2013

  Actual Average Record
Temperature  
Mean Temperature 45 °F -  
Max Temperature 48 °F 54 °F 73 °F (1997)
Min Temperature 42 °F 33 °F 21 °F (2003)
Degree Days  
Heating Degree Days 20    
Moisture  
Dew Point 40 °F    
Average Humidity 86    
Maximum Humidity 93    
Minimum Humidity 71    
Precipitation  
Precipitation 0.77 in - - ()
Sea Level Pressure  
Sea Level Pressure 29.95 in    
Wind  
Wind Speed 18 mph (NE)    
Max Wind Speed 25 mph    
Max Gust Speed 40 mph    
Visibility 5 miles    
Events Rain , Thunderstorm    
Averages and records for this station are not official NWS values.
T = Trace of Precipitation, MM = Missing Value Source: NWS Daily Summary

Daily Weather History Graph

Daily Weather History Graph

Search for Another Location

Airport or City:

Trip Planner

Search our weather history database for the weather conditions in past years. The results will help you decide how hot, cold, wet, or windy it might be!

Date:

Astronomy

Oct. 05, 2013 Rise Set
Actual Time 7:10 AM CDT 6:36 PM CDT
Civil Twilight 6:39 AM CDT 7:07 PM CDT
Nautical Twilight 6:04 AM CDT 7:42 PM CDT
Astronomical Twilight 5:28 AM CDT 8:18 PM CDT
Moon 7:55 AM CDT (10/5) 6:49 PM CDT (10/5)
Length of Visible Light 12h 27m
Length of Day
11h 26m
New Moon, 1% of the Moon is Illuminated
Oct 5
New Moon
Oct 11
First Quarter
Oct 18
Full
Oct 26
Last Quarter
Nov 3
New

Hourly Weather History & Observations

Time (CDT) Temp. Windchill Dew Point Humidity Pressure Visibility Wind Dir Wind Speed Gust Speed Precip Events Conditions
12:13 AM 48.2 °F - 39.2 °F 71% 30.10 in 10.0 mi NE 17.3 mph 27.6 mph N/A   Scattered Clouds
12:34 AM 48.2 °F - 39.2 °F 71% 30.10 in 10.0 mi NE 17.3 mph 31.1 mph N/A   Scattered Clouds
12:53 AM 48.2 °F - 39.2 °F 71% 30.09 in 10.0 mi NE 17.3 mph 27.6 mph N/A   Scattered Clouds
1:13 AM 48.2 °F - 39.2 °F 71% 30.08 in 10.0 mi NE 13.8 mph 25.3 mph N/A   Mostly Cloudy
1:33 AM 46.4 °F 39.0 °F 39.2 °F 76% 30.07 in 10.0 mi NE 19.6 mph 25.3 mph N/A   Mostly Cloudy
1:53 AM 46.4 °F 39.0 °F 39.2 °F 76% 30.07 in 10.0 mi NE 19.6 mph 29.9 mph N/A   Scattered Clouds
2:13 AM 46.4 °F 38.3 °F 39.2 °F 76% 30.06 in 10.0 mi NE 23.0 mph 31.1 mph N/A   Scattered Clouds
2:33 AM 46.4 °F 38.7 °F 39.2 °F 76% 30.05 in 10.0 mi NE 20.7 mph 31.1 mph N/A   Mostly Cloudy
2:53 AM 46.4 °F 39.0 °F 39.2 °F 76% 30.04 in 10.0 mi NE 19.6 mph 33.4 mph N/A   Mostly Cloudy
3:13 AM 46.4 °F 38.7 °F 41.0 °F 81% 30.05 in 7.0 mi NE 20.7 mph 29.9 mph N/A   Drizzle
3:33 AM 46.4 °F 38.7 °F 42.8 °F 87% 30.06 in 5.0 mi NE 20.7 mph 26.5 mph 0.03 in Rain Heavy Rain
3:53 AM 46.4 °F 39.8 °F 42.8 °F 87% 30.04 in 5.0 mi NE 16.1 mph 29.9 mph 0.04 in Rain Heavy Rain
4:13 AM 46.4 °F 38.3 °F 42.8 °F 87% 30.03 in 7.0 mi NE 23.0 mph 31.1 mph 0.15 in Rain Heavy Rain
4:33 AM 44.6 °F 36.4 °F 41.0 °F 87% 30.00 in 7.0 mi NE 20.7 mph 31.1 mph 0.24 in Rain Rain
4:53 AM 44.6 °F 37.8 °F 41.0 °F 87% 30.00 in 10.0 mi NE 15.0 mph 34.5 mph 0.01 in Rain Heavy Rain
5:13 AM 44.6 °F 36.6 °F 41.0 °F 87% 30.01 in 10.0 mi NE 19.6 mph 32.2 mph 0.04 in Rain Rain
5:33 AM 44.6 °F 38.1 °F 41.0 °F 87% 30.03 in 10.0 mi NE 13.8 mph 27.6 mph 0.07 in Rain Rain
5:53 AM 44.6 °F 37.4 °F 41.0 °F 87% 30.01 in 7.0 mi NE 16.1 mph 34.5 mph 0.02 in Rain Rain
6:13 AM 44.6 °F 36.9 °F 41.0 °F 87% 30.00 in 10.0 mi NE 18.4 mph 33.4 mph 0.03 in Rain Light Rain
6:33 AM 44.6 °F 36.1 °F 41.0 °F 87% 30.01 in 10.0 mi NE 21.9 mph 27.6 mph 0.03 in   Mostly Cloudy
6:53 AM 44.6 °F 36.9 °F 41.0 °F 87% 30.01 in 5.0 mi NE 18.4 mph 35.7 mph N/A   Overcast
7:13 AM 44.6 °F 36.1 °F 41.0 °F 87% 30.01 in 2.5 mi NE 21.9 mph 31.1 mph N/A   Overcast
7:33 AM 44.6 °F 36.1 °F 41.0 °F 87% 30.00 in 2.0 mi NE 21.9 mph 31.1 mph N/A   Overcast
7:53 AM 44.6 °F 36.9 °F 41.0 °F 87% 30.00 in 2.0 mi ENE 18.4 mph 28.8 mph N/A   Overcast
8:13 AM 44.6 °F 36.1 °F 41.0 °F 87% 30.00 in 3.0 mi NE 21.9 mph 31.1 mph N/A   Overcast
8:33 AM 44.6 °F 36.9 °F 41.0 °F 87% 30.01 in 3.0 mi NE 18.4 mph 34.5 mph N/A   Overcast
8:53 AM 44.6 °F 37.4 °F 41.0 °F 87% 30.00 in 2.5 mi NE 16.1 mph 32.2 mph 0.01 in Rain Light Rain
9:13 AM 44.6 °F 36.9 °F 41.0 °F 87% 30.00 in 2.0 mi NE 18.4 mph 32.2 mph 0.01 in Rain Light Rain
9:33 AM 44.6 °F 37.4 °F 39.2 °F 81% 29.99 in 2.0 mi NNE 16.1 mph 31.1 mph 0.01 in   Overcast
9:53 AM 44.6 °F 37.8 °F 39.2 °F 81% 30.00 in 2.0 mi NE 15.0 mph 34.5 mph N/A   Overcast
10:13 AM 42.8 °F 35.8 °F 39.2 °F 87% 30.01 in 1.5 mi NE 13.8 mph 31.1 mph N/A   Overcast
10:33 AM 42.8 °F 34.3 °F 39.2 °F 87% 29.99 in 1.0 mi NE 19.6 mph 33.4 mph N/A   Overcast
10:53 AM 42.8 °F 34.3 °F 39.2 °F 87% 29.99 in 1.2 mi NE 19.6 mph 28.8 mph N/A   Overcast
11:13 AM 42.8 °F 33.5 °F 39.2 °F 87% 29.99 in 1.2 mi NE 23.0 mph 33.4 mph N/A   Mostly Cloudy
11:33 AM 42.8 °F 34.3 °F 39.2 °F 87% 29.99 in 1.5 mi NE 19.6 mph 31.1 mph N/A   Overcast
11:54 AM 42.8 °F 34.5 °F 39.2 °F 87% 30.00 in 1.0 mi NE 18.4 mph 29.9 mph 0.01 in   Overcast
12:13 PM 42.8 °F 34.5 °F 39.2 °F 87% 29.99 in 1.5 mi NE 18.4 mph 27.6 mph 0.02 in Rain Light Rain
12:33 PM 42.8 °F 34.5 °F 39.2 °F 87% 29.98 in 2.5 mi NE 18.4 mph 26.5 mph 0.03 in Rain Light Rain
12:53 PM 42.8 °F 34.3 °F 39.2 °F 87% 29.98 in 3.0 mi NNE 19.6 mph 26.5 mph N/A Rain Light Rain
1:13 PM 42.8 °F 34.5 °F 39.2 °F 87% 29.97 in 3.0 mi NE 18.4 mph 32.2 mph N/A Rain Light Rain
1:33 PM 42.8 °F 34.3 °F 39.2 °F 87% 29.96 in 5.0 mi NE 19.6 mph 26.5 mph N/A   Overcast
1:53 PM 42.8 °F 34.5 °F 39.2 °F 87% 29.95 in 4.0 mi NE 18.4 mph 27.6 mph N/A   Overcast
2:13 PM 42.8 °F 35.4 °F 39.2 °F 87% 29.95 in 4.0 mi NNE 15.0 mph 28.8 mph N/A   Overcast
2:33 PM 42.8 °F 35.8 °F 39.2 °F 87% 29.94 in 1.8 mi NE 13.8 mph 27.6 mph N/A   Drizzle
2:53 PM 42.8 °F 35.1 °F 39.2 °F 87% 29.93 in 1.8 mi NE 16.1 mph 28.8 mph N/A   Overcast
3:13 PM 42.8 °F 34.5 °F 39.2 °F 87% 29.92 in 1.8 mi NE 18.4 mph 28.8 mph N/A   Light Drizzle
3:33 PM 42.8 °F 34.5 °F 39.2 °F 87% 29.91 in 1.5 mi NE 18.4 mph 26.5 mph N/A   Light Drizzle
3:53 PM 42.8 °F 35.1 °F 39.2 °F 87% 29.91 in 1.8 mi NE 16.1 mph 28.8 mph N/A   Overcast
4:13 PM 42.8 °F 35.1 °F 39.2 °F 87% 29.90 in 1.5 mi NE 16.1 mph 27.6 mph 0.01 in   Overcast
4:33 PM 42.8 °F 34.5 °F 39.2 °F 87% 29.90 in 1.2 mi NE 18.4 mph 27.6 mph 0.01 in   Overcast
4:53 PM 42.8 °F 34.8 °F 39.2 °F 87% 29.89 in 1.2 mi NE 17.3 mph 27.6 mph N/A   Overcast
5:13 PM 42.8 °F 34.5 °F 39.2 °F 87% 29.89 in 1.2 mi NNE 18.4 mph 31.1 mph N/A   Overcast
5:33 PM 42.8 °F 34.3 °F 39.2 °F 87% 29.88 in 2.0 mi NE 19.6 mph 28.8 mph 0.01 in Rain Light Rain
5:53 PM 42.8 °F 33.1 °F 39.2 °F 87% 29.86 in 1.5 mi NNE 25.3 mph 34.5 mph N/A   Light Drizzle
6:13 PM 42.8 °F 34.3 °F 39.2 °F 87% 29.87 in 4.0 mi NE 19.6 mph 29.9 mph N/A   Overcast
6:33 PM 42.8 °F 34.8 °F 39.2 °F 87% 29.87 in 7.0 mi NE 17.3 mph 36.8 mph N/A   Overcast
6:53 PM 42.8 °F 35.8 °F 41.0 °F 93% 29.87 in 10.0 mi NE 13.8 mph 25.3 mph N/A   Overcast
7:13 PM 42.8 °F 35.4 °F 39.2 °F 87% 29.85 in 3.0 mi NE 15.0 mph 27.6 mph N/A   Overcast
7:33 PM 42.8 °F 34.0 °F 39.2 °F 87% 29.84 in 1.8 mi NE 20.7 mph 31.1 mph 0.01 in   Overcast
7:53 PM 42.8 °F 34.5 °F 41.0 °F 93% 29.85 in 5.0 mi NE 18.4 mph 35.7 mph N/A   Overcast
8:13 PM 42.8 °F 34.5 °F 41.0 °F 93% 29.84 in 4.0 mi NE 18.4 mph 29.9 mph N/A   Overcast
8:33 PM 42.8 °F 34.0 °F 41.0 °F 93% 29.83 in 2.5 mi NE 20.7 mph 34.5 mph N/A   Overcast
8:53 PM 44.6 °F 35.7 °F 41.0 °F 87% 29.82 in 1.8 mi NE 24.2 mph 40.3 mph N/A   Overcast
9:13 PM 44.6 °F 37.4 °F 41.0 °F 87% 29.80 in 2.0 mi NE 16.1 mph 32.2 mph N/A   Overcast
9:33 PM 44.6 °F 37.4 °F 41.0 °F 87% 29.81 in 2.5 mi NE 16.1 mph 26.5 mph N/A   Overcast
9:53 PM 44.6 °F 36.9 °F 41.0 °F 87% 29.83 in 2.5 mi NE 18.4 mph 26.5 mph N/A   Overcast
10:13 PM 44.6 °F 36.9 °F 41.0 °F 87% 29.80 in 2.5 mi NE 18.4 mph 33.4 mph 0.10 in Rain , Thunderstorm Heavy Thunderstorms and Rain
10:33 PM 44.6 °F 37.4 °F 41.0 °F 87% 29.81 in 7.0 mi NE 16.1 mph 27.6 mph 0.20 in Rain Heavy Rain
10:53 PM 44.6 °F 37.8 °F 42.8 °F 93% 29.79 in 10.0 mi NNE 15.0 mph 26.5 mph 0.02 in Rain Heavy Rain
11:13 PM 44.6 °F 36.9 °F 41.0 °F 87% 29.78 in 7.0 mi NE 18.4 mph 28.8 mph 0.09 in Rain Light Rain
11:33 PM 44.6 °F 36.6 °F 42.8 °F 93% 29.76 in 10.0 mi NE 19.6 mph 29.9 mph 0.10 in Rain Heavy Rain
11:53 PM 44.6 °F 37.4 °F 42.8 °F 93% 29.76 in 4.0 mi NE 16.1 mph 26.5 mph 0.08 in Rain Heavy Rain